When you browse on this site, cookies collect data to enhance your experience and personalize the content and advertising you see.
Visit our Privacy Policy to learn more. By continuing to use the site, you agree to this use of cookies and data.
  • In Sweden
  • List of Countries
  • For 7 days
  • Water Temperature
  • Weather Map
  • Weather Widgets
  • user-avatar
    Login

    Hourly Weather Agasul

    Today, 5 June, Friday

    Time Temperature Precipitation Wind Pressure Humidity
    00:00 +10°C° 0.1 mm 2 mps 703 mmHg 93%
    01:00 +10°C° 0.1 mm 2 mps 703 mmHg 93%
    02:00 +11°C° 0.4 mm 1 mps 703 mmHg 94%
    03:00 +11°C° 0.4 mm 1 mps 703 mmHg 95%
    04:00 +11°C° 0.4 mm 1 mps 703 mmHg 97%
    05:00 +11°C° 0.3 mm 1 mps 703 mmHg 95%
    06:00 +10°C° 0.3 mm 2 mps 704 mmHg 93%
    07:00 +10°C° 0.3 mm 2 mps 704 mmHg 92%
    08:00 +12°C° 0.4 mm 2 mps 704 mmHg 89%
    09:00 +12°C° 0.4 mm 3 mps 704 mmHg 87%
    10:00 +12°C° 0.4 mm 4 mps 704 mmHg 84%
    11:00 +13°C° 0.2 mm 4 mps 704 mmHg 80%
    12:00 +14°C° 0.2 mm 5 mps 704 mmHg 75%
    13:00 +14°C° 0.2 mm 5 mps 704 mmHg 70%
    14:00 +14°C° 0.1 mm 5 mps 704 mmHg 69%
    15:00 +14°C° 0.1 mm 6 mps 704 mmHg 68%
    16:00 +14°C° 0.1 mm 6 mps 705 mmHg 67%
    17:00 +13°C° 0.2 mm 6 mps 705 mmHg 72%
    18:00 +13°C° 0.2 mm 5 mps 705 mmHg 76%
    19:00 +12°C° 0.2 mm 4 mps 705 mmHg 80%
    20:00 +12°C° 0.2 mm 4 mps 705 mmHg 84%
    21:00 +12°C° 0.2 mm 4 mps 706 mmHg 87%
    22:00 +11°C° 0.2 mm 3 mps 707 mmHg 90%
    23:00 +11°C° 0.3 mm 3 mps 707 mmHg 91%

    Tomorrow, 6 June, Saturday

    Time Temperature Precipitation Wind Pressure Humidity
    00:00 +11°C° 0.3 mm 3 mps 707 mmHg 93%
    01:00 +12°C° 0.3 mm 2 mps 707 mmHg 95%
    02:00 +12°C° 0.2 mm 2 mps 707 mmHg 94%
    03:00 +12°C° 0.2 mm 2 mps 707 mmHg 94%
    04:00 +12°C° 0.2 mm 2 mps 707 mmHg 93%
    05:00 +11°C° 0 mm 3 mps 707 mmHg 92%
    06:00 +12°C° 0 mm 3 mps 707 mmHg 91%
    07:00 +13°C° 0 mm 3 mps 707 mmHg 90%
    08:00 +14°C° 0 mm 4 mps 708 mmHg 81%
    09:00 +16°C° 0 mm 5 mps 708 mmHg 73%
    10:00 +17°C° 0 mm 6 mps 708 mmHg 64%
    11:00 +19°C° 0.2 mm 6 mps 708 mmHg 61%
    12:00 +20°C° 0.2 mm 6 mps 708 mmHg 58%
    13:00 +21°C° 0.2 mm 7 mps 708 mmHg 55%
    14:00 +21°C° 0.3 mm 6 mps 708 mmHg 57%
    15:00 +20°C° 0.3 mm 6 mps 708 mmHg 60%
    16:00 +20°C° 0.3 mm 5 mps 708 mmHg 62%
    17:00 +17°C° 0.3 mm 5 mps 708 mmHg 69%
    18:00 +17°C° 0.3 mm 4 mps 708 mmHg 77%
    19:00 +14°C° 0.3 mm 3 mps 708 mmHg 84%
    20:00 +14°C° 0.6 mm 2 mps 708 mmHg 88%
    21:00 +13°C° 0.6 mm 1 mps 708 mmHg 92%
    22:00 +13°C° 0.6 mm 1 mps 709 mmHg 96%
    23:00 +13°C° 0.6 mm 1 mps 708 mmHg 96%

    Day after tomorrow, 7 June, Sunday

    Time Temperature Precipitation Wind Pressure Humidity
    00:00 +12°C° 0.6 mm 1 mps 708 mmHg 97%
    01:00 +12°C° 0.6 mm 1 mps 708 mmHg 97%
    02:00 +12°C° 1.7 mm 1 mps 708 mmHg 97%
    03:00 +12°C° 1.7 mm 1 mps 708 mmHg 98%
    04:00 +11°C° 1.7 mm 1 mps 708 mmHg 98%
    05:00 +11°C° 1.2 mm 1 mps 709 mmHg 98%
    06:00 +11°C° 1.2 mm 1 mps 709 mmHg 97%
    07:00 +9°C° 1.2 mm 0 mps 709 mmHg 97%
    08:00 +10°C° 0.5 mm 0 mps 709 mmHg 96%
    09:00 +10°C° 0.5 mm 0 mps 710 mmHg 96%
    10:00 +10°C° 0.5 mm 0 mps 710 mmHg 95%
    11:00 +11°C° 0.3 mm 1 mps 710 mmHg 93%
    12:00 +12°C° 0.3 mm 1 mps 710 mmHg 91%
    13:00 +12°C° 0.3 mm 1 mps 710 mmHg 89%
    14:00 +13°C° 0 mm 1 mps 710 mmHg 87%
    15:00 +13°C° 0 mm 1 mps 710 mmHg 85%
    16:00 +13°C° 0 mm 1 mps 710 mmHg 83%
    17:00 +13°C° 0 mm 1 mps 710 mmHg 83%
    18:00 +13°C° 0 mm 1 mps 710 mmHg 83%
    19:00 +12°C° 0 mm 0 mps 711 mmHg 84%
    20:00 +11°C° 0 mm 0 mps 711 mmHg 86%
    21:00 +10°C° 0 mm 0 mps 711 mmHg 89%
    22:00 +9°C° 0 mm 0 mps 711 mmHg 91%
    23:00 +8°C° 0 mm 0 mps 711 mmHg 92%

    8 June, Monday

    Time Temperature Precipitation Wind Pressure Humidity
    00:00 +8°C° 0 mm 0 mps 711 mmHg 93%
    01:00 +7°C° 0 mm 0 mps 710 mmHg 94%
    02:00 +7°C° 0 mm 0 mps 710 mmHg 94%
    03:00 +7°C° 0 mm 0 mps 710 mmHg 94%
    04:00 +7°C° 0 mm 0 mps 710 mmHg 94%
    05:00 +8°C° 0 mm 0 mps 710 mmHg 91%
    06:00 +9°C° 0 mm 0 mps 711 mmHg 88%
    07:00 +10°C° 0 mm 0 mps 711 mmHg 85%
    08:00 +11°C° 0.2 mm 0 mps 711 mmHg 83%
    09:00 +12°C° 0.2 mm 0 mps 711 mmHg 82%
    10:00 +14°C° 0.2 mm 1 mps 711 mmHg 80%
    11:00 +15°C° 0.1 mm 1 mps 712 mmHg 74%
    12:00 +16°C° 0.1 mm 1 mps 712 mmHg 68%
    13:00 +18°C° 0.1 mm 1 mps 712 mmHg 62%
    14:00 +19°C° 0 mm 1 mps 712 mmHg 61%
    15:00 +18°C° 0 mm 2 mps 712 mmHg 59%
    16:00 +18°C° 0 mm 2 mps 712 mmHg 57%
    17:00 +17°C° 0 mm 2 mps 712 mmHg 63%
    18:00 +16°C° 0 mm 2 mps 712 mmHg 69%
    19:00 +15°C° 0 mm 2 mps 712 mmHg 75%
    20:00 +14°C° 0 mm 1 mps 712 mmHg 81%
    21:00 +12°C° 0 mm 1 mps 712 mmHg 87%
    22:00 +9°C° 0 mm 0 mps 712 mmHg 93%
    23:00 +9°C° 0 mm 0 mps 712 mmHg 93%

    9 June, Tuesday

    Time Temperature Precipitation Wind Pressure Humidity
    00:00 +9°C° 0 mm 0 mps 712 mmHg 93%
    01:00 +9°C° 0 mm 0 mps 712 mmHg 93%
    02:00 +8°C° 0 mm 0 mps 712 mmHg 93%
    03:00 +8°C° 0 mm 0 mps 712 mmHg 94%
    04:00 +8°C° 0 mm 0 mps 712 mmHg 94%
    05:00 +9°C° 0 mm 0 mps 712 mmHg 90%
    06:00 +10°C° 0 mm 0 mps 713 mmHg 86%
    07:00 +12°C° 0 mm 0 mps 713 mmHg 82%
    08:00 +13°C° 0.1 mm 0 mps 713 mmHg 79%
    09:00 +14°C° 0.1 mm 0 mps 713 mmHg 76%
    10:00 +16°C° 0.1 mm 1 mps 714 mmHg 72%
    11:00 +16°C° 0.3 mm 1 mps 714 mmHg 70%
    12:00 +18°C° 0.3 mm 1 mps 714 mmHg 67%
    13:00 +18°C° 0.3 mm 2 mps 714 mmHg 65%
    14:00 +18°C° 0.5 mm 2 mps 713 mmHg 67%
    15:00 +18°C° 0.5 mm 2 mps 713 mmHg 69%
    16:00 +18°C° 0.5 mm 2 mps 713 mmHg 71%
    17:00 +18°C° 0.9 mm 1 mps 713 mmHg 77%
    18:00 +16°C° 0.9 mm 1 mps 713 mmHg 84%
    19:00 +16°C° 0.9 mm 1 mps 714 mmHg 91%
    20:00 +15°C° 0.5 mm 1 mps 714 mmHg 92%
    21:00 +14°C° 0.5 mm 1 mps 714 mmHg 93%
    22:00 +13°C° 0.5 mm 1 mps 715 mmHg 94%
    23:00 +11°C° 0.2 mm 0 mps 715 mmHg 95%

    10 June, Wednesday

    Time Temperature Precipitation Wind Pressure Humidity
    00:00 +11°C° 0.2 mm 0 mps 715 mmHg 95%
    01:00 +11°C° 0.2 mm 0 mps 715 mmHg 96%
    02:00 +11°C° 0.2 mm 0 mps 715 mmHg 96%
    03:00 +11°C° 0.2 mm 0 mps 714 mmHg 97%
    04:00 +11°C° 0.2 mm 0 mps 714 mmHg 97%
    05:00 +11°C° 0.3 mm 0 mps 715 mmHg 96%
    06:00 +11°C° 0.3 mm 0 mps 715 mmHg 96%
    07:00 +12°C° 0.3 mm 0 mps 715 mmHg 95%
    08:00 +13°C° 0.4 mm 0 mps 715 mmHg 94%
    09:00 +13°C° 0.4 mm 0 mps 715 mmHg 92%
    10:00 +14°C° 0.4 mm 0 mps 715 mmHg 91%
    11:00 +16°C° 0.5 mm 0 mps 715 mmHg 84%
    12:00 +17°C° 0.5 mm 0 mps 715 mmHg 78%
    13:00 +21°C° 0.5 mm 1 mps 715 mmHg 71%
    14:00 +21°C° 0.9 mm 1 mps 715 mmHg 75%
    15:00 +20°C° 0.9 mm 1 mps 715 mmHg 80%
    16:00 +19°C° 0.9 mm 1 mps 715 mmHg 84%
    17:00 +19°C° 1 mm 1 mps 715 mmHg 86%
    18:00 +18°C° 1 mm 1 mps 715 mmHg 89%
    19:00 +15°C° 1 mm 0 mps 715 mmHg 91%
    20:00 +14°C° 0.2 mm 0 mps 716 mmHg 92%
    21:00 +14°C° 0.2 mm 1 mps 716 mmHg 92%
    22:00 +13°C° 0.2 mm 1 mps 716 mmHg 93%
    23:00 +12°C° 0 mm 0 mps 716 mmHg 94%
    Show more